    Orbital elements:
    2011 TN9                                            PHA, Earth MOID = 0.0454 AU
    Epoch 2015 June 27.0 TT = JDT 2457200.5                 MPC
    M 154.63384              (2000.0)            P               Q
    n   0.37649654     Peri.  163.04539     +0.99898924     -0.03830954
    a   1.8994538      Node   199.19629     +0.02823891     +0.94186704
    e   0.4510828      Incl.    4.10076     +0.03497216     +0.33379462
    P   2.62           H   21.3           G   0.15           U   1
    Residuals in seconds of arc
    111015 703  0.4-  0.2-    111017 A53  0.3-  0.4+    111026 089  0.0   0.0
    111015 703  0.1-  0.1-    111017 A53  0.2-  0.1+    111026 089  0.2-  0.2-
    111015 703  0.2-  0.3-    111017 108 (2.8-  0.3+)   111026 089  0.0   0.0
    111015 703  0.2+  0.1-    111017 A53  0.3-  0.1+    111026 089  0.0   0.2-
    111015 703  0.2-  0.1+    111017 A53  1.1-  0.2+    111026 089  0.7+  0.5-
    111015 703  0.2-  0.2+    111018 932  0.3+  0.2-    111026 089  0.3+  0.4+
    111015 703  0.3+  0.0     111018 932  0.4+  0.2-    111026 089  0.7-  0.4-
    111015 703  0.4-  0.1-    111018 932  0.3+  0.2-    111027 695  0.0   0.1+
    111015 H06  0.5+  0.2+    111018 932  0.4+  0.2-    111027 695  0.1-  0.2+
    111015 703  0.1-  0.4+    111018 932  0.2+  0.2-    111027 695  0.1-  0.1+
    111015 703  0.4+  0.1+    111018 G56  0.7+  0.0     111027 695  0.2-  0.3+
    111015 703  0.4-  0.2-    111018 G56  0.0   0.3-    111027 379  0.0   0.1-
    111015 703  0.3-  0.2-    111018 G56  0.1-  0.0     111027 379  0.0   0.4-
    111015 H06  0.4-  0.4-    111018 G56  0.1+  0.1-    111027 379  0.0   0.1-
    111015 E23  0.2-  0.3-    111018 379  0.2-  0.1-    111027 379  0.3+  0.0
    111015 D90  0.1+  0.2-    111018 379  0.2+  0.0     111027 379  0.4+  0.2+
    111015 D90  0.4-  0.1-    111018 379 (1.6+  0.5-)   111027 379  0.3+  0.6+
    111015 D90  0.5-  0.0     111019 G48  0.2-  0.9+    111027 379  0.3-  0.1+
    111015 E23  0.6+  0.0     111019 G48  0.2+  0.5+    111027 379  1.3+  0.1+
    111015 D90  0.1+  0.1-    111019 G48  0.2-  0.7+    111027 379  0.5-  0.1-
    111015 D90  0.2+  0.3-    111019 G48  0.2-  0.8+    111028 I45  0.3+  1.1+
    111015 E23  0.5-  0.5-    111019 G48  0.0   0.8+    111028 I45 (0.5+  4.0-)
    111015 E23  0.1-  0.2-    111019 300 (0.7+  1.6+)   111028 I45  1.0-  0.9-
    111015 046  0.4-  0.1-    111019 300 (1.3+  1.7+)   111028 844  0.3+  0.2-
    111015 046  0.3+  0.2+    111019 300  0.2+  1.1+    111028 844  0.2-  0.6-
    111015 046  0.1+  0.0     111020 H49  0.3-  1.2-    111028 844  0.1-  0.6-
    111015 046  0.0   0.2-    111020 H49 (2.0+  0.5-)   111028 844  0.4+  0.2-
    111015 046  0.4-  0.2-    111020 H49  1.1-  1.1+    111028 844  0.3-  0.0
    111015 046  0.1-  0.1-    111020 H49 (2.2+  1.5-)   111028 844  0.3-  0.6-
    111015 246  0.3+  0.5+    111020 H49 (3.5-  0.4-)   111028 844  0.1+  0.1+
    111015 246  1.3-  0.6+    111020 H49  0.4+  0.1+    111028 844  0.2-  0.0
    111015 246  0.2-  0.5+    111020 I39  0.1+  0.8-    111028 844  0.3-  0.1+
    111015 246  0.4+  0.5+    111020 I39  0.7+  0.8-    111028 355  0.6+  0.1+
    111015 246  0.3+  0.8+    111020 I39  0.5+  0.1-    111028 355  0.1-  0.4+
    111015 246  0.3+  0.5+    111020 704  0.3-  0.6+    111028 355  0.1-  0.1+
    111015 246  0.2+  0.5+    111020 704  0.7-  0.1+    111028 355  0.3+  0.3-
    111015 595  0.1-  0.4+    111020 704  0.4-  0.7+    111028 379  0.7+  0.2-
    111015 595  0.0   0.6+    111020 704  0.3-  0.5+    111028 379  0.5+  0.2-
    111015 595  0.1-  0.2+    111020 704  0.2-  0.7+    111028 379  0.6-  0.2-
    111015 J95  0.0   0.2-    111020 C81 (1.6+  0.0 )   111028 379 (0.6+  1.7+)
    111015 J95  0.1+  0.2-    111020 C81  0.6+  0.4+    111028 379  0.4-  0.6+
    111015 J95  0.1-  0.3-    111020 C81 (0.1+  2.5-)   111028 379  1.0-  0.1+
    111015 510  0.1+  0.2-    111021 704  0.1+  0.2+    111028 379  0.5-  0.1+
    111015 510  0.4+  0.3-    111021 704  0.1+  0.4+    111029 F51  0.0   0.2-
    111015 510  0.1+  0.6-    111021 704  0.0   0.2+    111029 F51  0.1+  0.2-
    111015 510  0.3-  0.2-    111021 H21  0.1+  0.2-    111029 F51  0.1+  0.1-
    111015 B82  0.3-  0.6-    111021 H21  0.0   0.3-    111101 G96  0.2+  0.1+
    111015 B82  0.0   0.2-    111021 704  0.0   0.2+    111101 G96  0.3+  0.1+
    111015 B82  0.2+  0.5-    111021 H21  0.0   0.3-    111101 G96  0.3+  0.0
    111015 B82  0.6+  0.4-    111021 H21  0.2+  0.2-    111101 G96  0.2+  0.1+
    111015 B82  1.0+  0.7-    111021 H21  0.1+  0.3-    111101 046  0.0   0.3+
    111015 B82  0.3+  0.3-    111021 H21  0.2+  0.1-    111101 046  0.1-  0.0
    111015 B82  0.0   0.8+    111021 704  0.1+  0.3+    111101 046  0.2+  0.2+
    111015 807  0.0   0.4-    111021 127  0.3-  0.2+    111101 046  0.0   0.0
    111016 807  0.1-  0.3-    111021 127  0.2+  1.2+    111101 046  0.1+  0.1+
    111016 807  0.1+  0.3-    111021 127  0.8-  0.5+    111102 291  0.1+  0.0
    111016 807  0.2-  0.3-    111021 046  0.2-  0.2+    111102 291  0.1-  0.1-
    111016 807  0.1-  0.4-    111021 046  0.0   0.2-    111102 291  0.0   0.1-
    111016 807  0.2-  0.4-    111021 046  0.3+  0.2+    111102 H21  0.3+  0.2-
    111016 G48  0.3+  0.6+    111021 046  0.3-  0.2+    111102 H21  0.2+  0.2-
    111016 G48  0.5+  0.6+    111021 046  0.4-  0.2-    111102 H21  0.2+  0.2-
    111016 G48  0.2+  0.8+    111022 H23  0.4+  0.2-    111102 H21  0.2+  0.2-
    111016 G48  0.2+  0.8+    111022 H23  0.4+  0.0     111102 H21  0.3+  0.2-
    111016 G48  0.2+  1.0+    111022 H23  0.6+  0.5+    111102 448  0.2+  0.2-
    111016 932  0.1+  0.3-    111022 704  0.5-  0.6+    111102 448  0.2+  0.0
    111016 932  0.2+  0.2-    111022 704  0.5-  0.6+    111102 448  0.3+  0.1-
    111016 932  0.1-  0.2-    111022 704  0.7-  0.6+    111102 448  0.4+  0.2-
    111016 932  0.0   0.2-    111022 704  0.7-  0.7+    111102 046  0.1+  0.4+
    111016 H21  0.1+  0.1-    111022 704  0.9-  0.6+    111102 046  0.2+  0.2+
    111016 H21  0.0   0.1+    111022 A17  0.2+  0.1-    111102 046  0.0   0.2+
    111016 H21  0.1+  0.0     111022 A17  0.0   0.2-    111102 046  0.2-  0.3+
    111016 H21  0.0   0.1-    111023 H23  0.1+  0.9-    111102 046  0.1-  0.3+
    111016 H21  0.0   0.2-    111023 H23  0.4+  0.7-    111103 089  0.2+  0.1-
    111016 H21  0.0   0.1-    111023 H23  0.1+  0.5-    111103 089  0.3-  0.4-
    111016 046  0.3+  0.3+    111023 704  0.1-  0.1+    111103 089  0.3+  0.4+
    111016 046  0.1-  0.4-    111023 704  0.1-  0.3+    111103 089  0.3-  0.2+
    111016 046  0.3-  0.1-    111023 704  0.3-  0.1+    111103 089  0.2+  0.6-
    111016 046  0.2-  0.1+    111023 704  0.1-  0.2+    111106 H21  0.3+  0.1+
    111016 046  0.3+  0.3+    111023 704  0.2-  0.6-    111106 H21  0.4+  0.1+
    111016 204  0.1-  0.0     111023 379  0.3-  0.5-    111106 H21  0.4+  0.1+
    111016 204  0.0   0.2-    111023 379  0.6-  0.7+    111106 A17  0.1-  0.3+
    111016 204  0.0   0.1-    111023 379  0.5-  0.3-    111106 A17  0.2+  0.0
    111016 204  0.1+  0.1-    111023 379  0.1+  0.1+    111106 A17  0.4+  0.1+
    111016 204  0.2+  0.2-    111023 379  0.5+  0.1+    111111 H21  0.2+  0.1-
    111016 807  0.0   0.3-    111023 379  0.0   0.1+    111111 H21  0.3-  0.1+
    111016 807  0.2+  0.0     111023 379  0.1+  0.3+    111111 H21  0.0   0.3+
    111016 807  0.4+  0.0     111023 127  0.3+  0.3-    111113 A17  0.2-  0.2+
    111016 807  0.4+  0.1+    111023 127  0.4-  0.7-    111113 A17  0.1-  0.2-
    111017 G48  0.2-  0.4+    111023 127  0.4+  0.4-    111113 A17  0.2-  0.2+
    111017 G48  0.4-  0.3+    111024 C60 (1.8+  0.3-)   111113 203  0.1+  0.1+
    111017 G48  0.6-  0.5+    111024 C60 (2.8-  0.1+)   111114 203  0.1-  0.0
    111017 G48  0.2-  0.5+    111024 C60 (3.1+  0.7-)   111115 D29  0.1-  0.3-
    111017 G48  0.9-  0.6+    111024 448  0.2+  0.0     111115 D29  0.7-  0.0
    111017 G56  0.1+  0.5-    111024 448  0.1+  0.1-    111115 D29  0.1-  0.5-
    111017 G56  0.1+  0.4-    111024 448  0.3+  0.1-    111116 G48  0.1+  0.0
    111017 G56  0.1+  0.1+    111024 448  0.2+  0.0     111116 G48  0.3-  0.1+
    111017 G56  0.2+  0.1-    111024 448  0.2+  0.0     111116 G48  0.9+  0.6-
    111017 G56  0.0   0.1-    111024 379 (2.5-  0.1-)   111116 703  0.3+  0.3+
    111017 H36  0.5+  0.4-    111024 379 (2.5-  0.2-)   111116 703  0.7-  0.3-
    111017 H36  0.1+  0.3-    111024 379 (2.1-  0.5-)   111116 703  0.0   0.4+
    111017 H36  0.4+  0.3-    111024 379 (2.7-  0.0 )   111116 703  0.1+  0.3-
    111017 H36  1.1+  0.3-    111024 127  0.3+  0.5+    111122 703  0.9-  0.8-
    111017 H36  0.2+  0.3-    111024 127  0.1+  0.5+    111122 703  0.6-  0.5-
    111017 379  0.3-  0.6-    111024 127  0.1+  0.5+    111122 703  1.1+  0.5-
    111017 379  0.1-  0.2-    111025 H21  0.0   0.2-    111122 703  0.2+  1.1+
    111017 379  0.6-  0.1+    111025 H21  0.1+  0.2-    111122 F51  0.1-  0.1+
    111017 379  0.9-  0.7-    111025 H21  0.2+  0.2-    111122 F51  0.0   0.1+
    111017 B03  0.1-  0.0     111025 H21  0.0   0.1-    111122 F51  0.0   0.1+
    111017 B03  0.1+  0.0     111025 H21  0.0   0.1-    111123 695  0.2-  0.2+
    111017 B03  0.1+  0.1-    111025 850  0.3+  0.2-    111123 695  0.2-  0.2+
    111017 B03  0.2+  0.1-    111025 850  0.2+  0.3-    111123 695  0.2-  0.2+
    111017 B03  0.0   0.0     111025 850  0.1+  0.2-    111202 807  0.2-  0.1-
    111017 B03  0.0   0.0     111025 379  0.8-  0.0     111202 807  0.1+  0.1+
    111017 046  0.1+  0.4+    111025 379  1.0-  0.1+    111202 807  0.1-  0.1-
    111017 046  0.3-  0.4+    111025 379  0.9-  0.3-    111222 807  0.3-  0.2-
    111017 046  0.3+  0.3+    111025 379  0.4-  0.3-    111222 807  0.1+  0.0
    111017 046  0.1+  0.2+    111026 850  0.7+  0.5-    111222 807  0.0   0.0
    111017 046  0.1+  0.4+    111026 850  0.2+  0.2+    150217 568  0.1+  0.0
    111017 A48  0.0   1.0+    111026 379  1.0-  0.3-    150217 568  0.0   0.0
    111017 A48  0.4+  0.2+    111026 379  0.2-  0.0     150217 568  0.0   0.1-
    111017 A48  0.4-  0.1+    111026 379  0.7-  0.2+    150219 568  0.0   0.1+
    111017 A48  0.3-  0.1+    111026 379  0.0   0.4+    150219 568  0.1-  0.1-
    111017 108  0.3-  0.6-    111026 089  0.7+  0.3+
    111017 108  1.1+  0.4-    111026 089  0.4-  0.4-
    
